Flag for United Kingdom Weather past 2 weeks in Truro, England, United Kingdom

Now
55 °F

Fog.


Feels Like: 54 °F
Forecast: 59 / 65 °F
Wind: 7 mph from Southeast

Location: Culdrose

Current Time: Jul 3, 2015 at 4:04:50 AM

Latest Report: Jul 3, 2015 at 2:50 AM


Visibility: 1 mi

Pressure: 30.21 "Hg

Humidity: 100%

Dew point: 55 °F

Location of TruroLocation

Historic Weather in Truro — Graph

°F

Truro temperature yesterday

Maximum temperature yesterday: 64 °F (at 2:50 PM)
Minimum temperature yesterday: 55 °F (at 5:50 AM)
Average temperature yesterday: 60 °F

Past Weeks' High & Low Weather Summary

 TemperatureHumidityPressure
High73 °F (Jun 30, 3:50 PM)100% (Jun 18, 2:50 AM)30.27 "Hg (Jun 18, 2:50 AM)
Low45 °F (Jun 24, 4:50 AM)49% (Jun 25, 2:50 PM)29.80 "Hg (Jul 1, 12:50 AM)
Average59 °F87%30.11 "Hg
* Reported Jun 18 2:50 AM — Jul 3 2:50 AM, Truro, Weather by CustomWeather, © 2015

Note: Actual official high and low records may vary slightly from our data, if they occured in-between our weather recording intervals... More about our weather records

Advertising

Truro weather history for previous 24 hours

 ConditionsComfort  
Time TempWeatherWind HumidityBarometerVisibility
2:50 AM
Fri, Jul 3
55 °FFog.7 mph100%30.21 "Hg1 mi
1:50 AM57 °FFog.6 mph100%30.21 "HgN/A
12:50 AM57 °FFog.7 mph100%30.24 "HgN/A
11:50 PM
Thu, Jul 2
57 °FFog.6 mph100%30.24 "HgN/A
10:50 PM57 °FFog.7 mph100%30.24 "HgN/A
9:50 PM59 °FHaze.7 mph94%30.21 "HgN/A
8:50 PM61 °FPassing clouds.7 mph94%30.21 "HgN/A
7:50 PM63 °FPassing clouds.9 mph83%30.18 "HgN/A
6:50 PM64 °FPassing clouds.7 mph78%30.18 "HgN/A
5:50 PM64 °FPassing clouds.10 mph78%30.15 "HgN/A
4:50 PM64 °FPassing clouds.14 mph78%30.15 "HgN/A
3:50 PM64 °FPassing clouds.10 mph78%30.15 "HgN/A
2:50 PM64 °FPassing clouds.9 mph78%30.12 "HgN/A
1:50 PM63 °FPassing clouds.7 mph83%30.09 "HgN/A
12:50 PM63 °FBroken clouds.5 mph83%30.09 "HgN/A
11:50 AM59 °FSprinkles. More clouds than sun.5 mph94%30.09 "HgN/A
10:50 AM59 °FMore clouds than sun.5 mph94%30.09 "HgN/A
9:50 AM59 °FSprinkles. Partly sunny.1 mph88%30.07 "HgN/A
8:50 AM59 °FSprinkles. Partly sunny.6 mph88%30.04 "HgN/A
7:50 AM59 °FPartly sunny.5 mph88%30.04 "HgN/A
6:50 AM57 °FScattered clouds.5 mph94%30.04 "HgN/A
5:50 AM55 °FPassing clouds.2 mph94%30.01 "HgN/A
4:50 AM57 °FPassing clouds.7 mph88%30.01 "HgN/A
Weather by CustomWeather, © 2015

See weather overviewHow to use our weather pages